Flag for Norway Weather past 2 weeks in Jørpeland, Norway

Now
41 °F

Low clouds.


Feels Like: 36 °F
Forecast: 37 / 49 °F
Wind: 8 mph from North

Location: Stavanger / Sola

Current Time: Apr 21, 2015 at 4:08:22 AM

Latest Report: Apr 21, 2015 at 2:50 AM


Visibility: 4 mi

Pressure: 30.42 "Hg

Humidity: 100%

Dew point: 41 °F

Location of JørpelandLocation

Historic Weather in Jørpeland — Graph

°F

Jørpeland temperature yesterday

Maximum temperature yesterday: 61 °F (at 11:20 AM)
Minimum temperature yesterday: 37 °F (at 4:50 AM)
Average temperature yesterday: 47 °F

Past Weeks' High & Low Weather Summary

 TemperatureHumidityPressure
High61 °F (Apr 20, 11:20 AM)100% (Apr 6, 9:20 AM)30.51 "Hg (Apr 6, 9:20 AM)
Low34 °F (Apr 17, 5:20 AM)41% (Apr 19, 11:20 AM)29.59 "Hg (Apr 11, 3:20 PM)
Average45 °F81%30.14 "Hg
* Reported Apr 6 2:50 AM — Apr 21 2:50 AM, Jørpeland, Weather by CustomWeather, © 2015

Note: Actual official high and low records may vary slightly from our data, if they occured in-between our weather recording intervals... More about our weather records

Advertising

Jørpeland weather history for previous 24 hours

 ConditionsComfort  
Time TempWeatherWind HumidityBarometerVisibility
2:50 AM
Tue, Apr 21
41 °FLow clouds.8 mph100%30.42 "Hg4 mi
1:50 AM41 °FFog.10 mph100%30.42 "Hg1 mi
12:50 AM41 °FFog.7 mph100%30.42 "Hg1 mi
12:20 AM41 °FFog.5 mph100%30.42 "Hg1 mi
11:50 PM
Mon, Apr 20
41 °FFog.7 mph100%30.42 "Hg1 mi
11:20 PM41 °FQuite cool.6 mph100%30.42 "Hg1 mi
10:50 PM43 °FQuite cool.5 mph93%30.42 "Hg0 mi
10:20 PM43 °FQuite cool.3 mph93%30.42 "Hg1 mi
9:50 PM43 °FFog.5 mph100%30.42 "Hg1 mi
9:20 PM45 °FFog.3 mph93%30.42 "Hg1 mi
8:50 PM45 °FFog.6 mph100%30.42 "Hg1 mi
8:20 PM45 °FQuite cool.6 mph100%30.42 "Hg1 mi
7:50 PM46 °FFog.7 mph93%30.42 "Hg1 mi
7:20 PM48 °FScattered clouds.7 mph94%30.42 "HgN/A
6:50 PM48 °FScattered clouds.9 mph87%30.42 "HgN/A
6:20 PM50 °FPassing clouds.9 mph82%30.45 "HgN/A
5:50 PM52 °FSunny.9 mph77%30.45 "Hg10 mi
5:20 PM54 °FSunny.10 mph72%30.45 "Hg10 mi
4:50 PM54 °FSunny.9 mph72%30.45 "Hg10 mi
4:20 PM54 °FSunny.7 mph67%30.45 "Hg10 mi
3:50 PM52 °FSunny.10 mph77%30.45 "Hg10 mi
3:20 PM55 °FSunny.10 mph63%30.45 "Hg10 mi
2:50 PM57 °FSunny.8 mph55%30.45 "Hg10 mi
2:20 PM55 °FSunny.8 mph59%30.45 "Hg10 mi
1:50 PM55 °FSunny.8 mph47%30.45 "Hg10 mi
1:20 PM55 °FSunny.7 mph59%30.45 "Hg10 mi
12:50 PM55 °FSunny.8 mph59%30.45 "Hg10 mi
12:20 PM54 °FSunny.12 mph63%30.45 "Hg10 mi
11:50 AM54 °FSunny.13 mph58%30.45 "Hg10 mi
11:20 AM61 °FSunny.1 mph42%30.45 "Hg10 mi
10:50 AM59 °FSunny.1 mph48%30.42 "Hg10 mi
10:20 AM55 °FSunny.1 mph59%30.42 "Hg10 mi
9:50 AM54 °FSunny.1 mph58%30.42 "Hg10 mi
9:20 AM50 °FSunny.2 mph62%30.42 "Hg10 mi
8:50 AM46 °FSunny.1 mph82%30.42 "Hg10 mi
8:20 AM43 °FSunny.1 mph87%30.42 "Hg10 mi
7:50 AM41 °FSunny.1 mph87%30.42 "Hg10 mi
7:20 AM39 °FSunny.1 mph87%30.39 "Hg10 mi
6:50 AM37 °FClear.1 mph87%30.39 "Hg10 mi
6:20 AM37 °FClear.2 mph93%30.39 "Hg10 mi
5:50 AM37 °FClear.No wind93%30.39 "Hg10 mi
5:20 AM37 °FClear.1 mph93%30.39 "Hg10 mi
4:50 AM37 °FClear.No wind87%30.39 "Hg10 mi
Weather by CustomWeather, © 2015

See weather overviewHow to use our weather pages